Time[GMT],significant_wave_height[m](0m),dominant_wave_period[s](0m)
2013-06-24 17:00, 0.81,5.3
2013-06-24 17:30, 0.73,5.3
2013-06-24 18:00, 0.75,5.3
2013-06-24 18:30, 0.72,5.3
2013-06-24 19:00, 0.71,5.3
2013-06-24 19:30, 0.73,5.3
2013-06-24 20:00, 0.61,5.3
2013-06-24 20:30, 0.63,5.3
2013-06-24 21:00, 0.63,5.3
2013-06-24 21:30, 0.71,5.3
2013-06-24 22:00, 0.65,5.3
2013-06-24 22:30, 0.58,8.0
2013-06-24 23:00, 0.63,5.3
2013-06-24 23:30, 0.58,5.3
2013-06-25 00:00, 0.60,4.6
2013-06-25 00:30, 0.68,8.0
2013-06-25 01:00, 0.65,8.0
2013-06-25 01:30, 0.55,4.6
2013-06-25 02:00, 0.55,4.6
2013-06-25 02:30, 0.70,8.0
2013-06-25 03:00, 0.50,4.6
2013-06-25 03:30, 0.71,6.4
2013-06-25 04:00, 0.76,3.2
2013-06-25 04:30, 0.77,3.6
2013-06-25 05:00, 0.74,3.6
2013-06-25 05:30, 0.80,4.0
2013-06-25 06:00, 0.71,4.0
2013-06-25 06:30, 0.70,4.6
2013-06-25 07:00, 0.62,4.0
2013-06-25 07:30, 0.69,4.6
2013-06-25 08:00, 0.56,4.6
2013-06-25 08:30, 0.65,4.0
2013-06-25 09:00, 0.54,4.0
2013-06-25 09:30, 0.52,5.3
2013-06-25 10:00, 0.57,8.0
2013-06-25 10:30, 0.56,8.0
2013-06-25 11:00, 0.55,8.0
2013-06-25 11:30, 0.53,8.0
2013-06-25 12:00, 0.55,8.0
2013-06-25 12:30, 0.55,8.0
2013-06-25 13:00, 0.51,8.0
2013-06-25 13:30, 0.59,8.0
2013-06-25 14:00, 0.61,8.0
2013-06-25 14:30, 0.57,8.0
2013-06-25 15:00, 0.35,3.6
2013-06-25 15:30, 0.38,4.6
2013-06-25 16:00, 0.65,10.7
2013-06-25 16:30, 0.56,8.0
2013-06-25 17:00, 0.52,6.4
2013-06-25 17:30, 0.71,6.4
2013-06-25 18:00, 0.65,6.4
2013-06-25 18:30, 0.68,6.4
2013-06-25 19:00, 0.70,6.4
2013-06-25 19:30, 0.72,6.4
2013-06-25 20:00, 0.65,6.4
2013-06-25 20:30, 0.67,6.4
2013-06-25 21:00, 0.76,8.0
2013-06-25 21:30, 0.62,8.0
2013-06-25 22:00, 0.66,6.4
2013-06-25 22:30, 0.41,2.7
2013-06-25 23:00, 0.69,8.0
2013-06-25 23:30, 0.39,2.7
2013-06-26 00:00, 0.63,8.0
2013-06-26 00:30, 0.60,6.4
2013-06-26 01:00, 0.66,8.0
2013-06-26 01:30, 0.63,8.0
2013-06-26 02:00, 0.70,6.4
2013-06-26 02:30, 0.69,6.4
2013-06-26 03:00, 0.66,6.4
2013-06-26 03:30, 0.63,6.4
2013-06-26 04:00, 0.61,6.4
2013-06-26 04:30, 0.71,6.4
2013-06-26 05:00, 0.70,6.4
2013-06-26 05:30, 0.71,5.3
2013-06-26 06:00, 0.71,6.4
2013-06-26 06:30, 0.76,6.4
2013-06-26 07:00, 0.70,6.4
2013-06-26 07:30, 0.69,6.4
2013-06-26 08:00, 0.65,6.4
2013-06-26 08:30, 0.68,6.4
2013-06-26 09:00, 0.61,5.3
2013-06-26 09:30, 0.64,6.4
2013-06-26 10:00, 0.65,6.4
2013-06-26 10:30, 0.57,8.0
2013-06-26 11:00, 0.61,8.0
2013-06-26 11:30, 0.64,6.4
2013-06-26 12:00, 0.62,8.0
2013-06-26 12:30, 0.69,8.0
2013-06-26 13:00, 0.62,8.0
2013-06-26 13:30, 0.62,5.3
2013-06-26 14:00, 0.73,8.0
2013-06-26 14:30, 0.65,4.6
2013-06-26 15:00, 0.71,6.4
2013-06-26 15:30, 0.71,6.4
2013-06-26 16:00, 0.64,6.4
2013-06-26 16:30, 0.58,6.4
2013-06-26 17:00, 0.61,6.4
2013-06-26 17:30, 0.69,6.4
2013-06-26 18:00, 0.64,5.3
2013-06-26 18:30, 0.77,8.0
2013-06-26 19:00, 0.86,6.4
2013-06-26 19:30, 0.81,6.4
2013-06-26 20:00, 0.84,6.4
2013-06-26 20:30, 0.89,3.6
2013-06-26 21:00, 0.80,3.6
2013-06-26 21:30, 0.67,3.6
2013-06-26 22:00, 0.82,8.0
2013-06-26 22:30, 0.75,3.6
2013-06-26 23:00, 0.75,3.6
2013-06-26 23:30, 0.77,6.4
2013-06-27 00:00, 0.80,8.0
2013-06-27 00:30, 0.76,8.0
2013-06-27 01:00, 0.70,3.6
2013-06-27 01:30, 0.63,3.6
2013-06-27 02:00, 0.77,6.4
2013-06-27 02:30, 0.73,4.0
2013-06-27 03:00, 0.79,4.6
2013-06-27 03:30, 0.93,8.0
2013-06-27 04:00, 0.81,4.6
2013-06-27 04:30, 0.88,4.0
2013-06-27 05:00, 0.87,4.6
2013-06-27 05:30, 0.95,6.4
2013-06-27 06:00, 0.99,6.4
2013-06-27 06:30, 0.97,8.0
2013-06-27 07:00, 0.97,6.4
2013-06-27 07:30, 0.95,6.4
2013-06-27 08:00, 0.91,4.6
2013-06-27 08:30, 1.00,5.3
2013-06-27 09:00, 1.02,5.3
2013-06-27 09:30, 0.89,6.4
2013-06-27 10:00, 0.83,8.0
2013-06-27 10:30, 0.86,8.0
2013-06-27 11:00, 0.84,6.4
2013-06-27 11:30, 0.77,5.3
2013-06-27 12:00, 0.70,6.4
2013-06-27 12:30, 0.65,8.0
2013-06-27 13:00, 0.61,6.4
2013-06-27 13:30, 0.67,6.4
2013-06-27 14:00, 0.67,6.4
2013-06-27 14:30, 0.66,6.4
2013-06-27 15:00, 0.61,6.4
2013-06-27 15:30, 0.55,6.4
2013-06-27 16:00, 0.54,6.4
2013-06-27 16:30, 0.63,6.4
2013-06-27 17:00, 0.65,6.4
2013-06-27 17:30, 0.65,8.0
2013-06-27 18:00, 0.62,6.4
2013-06-27 18:30, 0.71,6.4
2013-06-27 19:00, 0.67,6.4
2013-06-27 19:30, 0.68,8.0
2013-06-27 20:00, 0.69,6.4
2013-06-27 20:30, 0.71,6.4
2013-06-27 21:00, 0.69,8.0
2013-06-27 21:30, 0.63,8.0
2013-06-27 22:00, 0.61,6.4
2013-06-27 22:30, 0.63,8.0
2013-06-27 23:00, 0.68,8.0
2013-06-27 23:30, 0.73,8.0
2013-06-28 00:00, 0.75,8.0
2013-06-28 00:30, 0.77,8.0
2013-06-28 01:00, 0.84,8.0
2013-06-28 01:30, 0.57,2.7
2013-06-28 02:00, 0.64,2.9
2013-06-28 02:30, 0.67,3.2
2013-06-28 03:00, 0.95,3.6
2013-06-28 03:30, 0.95,3.6
2013-06-28 04:00, 1.05,4.0
2013-06-28 04:30, 1.07,3.6
2013-06-28 05:00, 1.15,4.0
2013-06-28 05:30, 1.11,4.0
2013-06-28 06:00, 1.13,3.6
2013-06-28 06:30, 1.19,4.0
2013-06-28 07:00, 1.22,4.0
2013-06-28 07:30, 1.34,4.6
2013-06-28 08:00, 1.23,4.6
2013-06-28 08:30, 1.33,4.6
2013-06-28 09:00, 1.32,4.6
2013-06-28 09:30, 1.34,4.6
2013-06-28 10:00, 1.34,4.6
2013-06-28 10:30, 1.48,5.3
2013-06-28 11:00, 1.36,5.3
2013-06-28 11:30, 1.30,5.3
2013-06-28 12:00, 1.36,5.3
2013-06-28 12:30, 1.35,4.6
2013-06-28 13:00, 1.25,5.3
2013-06-28 13:30, 1.22,5.3
2013-06-28 14:00, 1.25,5.3
2013-06-28 14:30, 1.36,5.3
2013-06-28 15:00, 1.33,4.6
2013-06-28 15:30, 1.09,4.6
2013-06-28 16:00, 1.20,4.6
2013-06-28 16:30, 1.19,5.3
2013-06-28 17:00, 1.17,4.0
2013-06-28 17:30, 1.28,4.6
2013-06-28 18:00, 1.20,6.4
2013-06-28 18:30, 1.23,6.4
2013-06-28 19:00, 1.32,4.6
2013-06-28 19:30, 1.13,8.0
2013-06-28 20:00, 1.17,5.3
2013-06-28 20:30, 1.10,5.3
2013-06-28 21:00, 1.29,4.6
2013-06-28 21:30, 1.43,5.3
2013-06-28 22:00, 1.44,6.4
2013-06-28 22:30, 1.46,6.4
2013-06-28 23:00, 1.51,6.4
2013-06-28 23:30, 1.78,8.0
2013-06-29 00:00, 1.94,8.0
2013-06-29 00:30, 1.74,8.0
2013-06-29 01:00, 2.11,8.0
2013-06-29 01:30, 1.94,8.0
2013-06-29 02:00, 1.83,8.0
2013-06-29 02:30, 1.66,8.0
2013-06-29 03:00, 1.96,8.0
2013-06-29 03:30, 1.90,8.0
2013-06-29 04:00, 2.10,8.0
2013-06-29 04:30, 1.93,8.0
2013-06-29 05:00, 2.16,8.0
2013-06-29 05:30, 1.73,8.0
2013-06-29 06:00, 1.81,8.0
2013-06-29 06:30, 1.86,8.0
2013-06-29 07:00, 1.75,8.0
2013-06-29 07:30, 1.93,8.0
2013-06-29 08:00, 1.75,8.0
2013-06-29 08:30, 1.68,8.0
2013-06-29 09:00, 1.72,10.7
2013-06-29 09:30, 1.75,10.7
2013-06-29 10:00, 1.68,10.7
2013-06-29 10:30, 1.82,10.7
2013-06-29 11:00, 1.72,8.0
2013-06-29 11:30, 1.87,10.7
2013-06-29 12:00, 1.69,8.0
2013-06-29 12:30, 1.79,10.7
2013-06-29 13:00, 1.78,10.7
2013-06-29 13:30, 1.89,10.7
2013-06-29 14:00, 2.28,10.7
2013-06-29 14:30, 2.43,10.7
2013-06-29 15:00, 2.32,10.7
2013-06-29 15:30, 2.18,10.7
2013-06-29 16:00, 1.96,8.0
2013-06-29 16:30, 1.70,8.0
2013-06-29 17:00, 2.12,8.0
2013-06-29 17:30, 1.86,10.7
2013-06-29 18:00, 1.92,10.7
2013-06-29 18:30, 1.81,8.0
2013-06-29 19:00, 1.91,8.0
2013-06-29 19:30, 1.80,8.0
2013-06-29 20:00, 1.89,8.0
2013-06-29 20:30, 1.56,6.4
2013-06-29 21:00, 1.84,10.7
2013-06-29 21:30,,
2013-06-29 22:00, 1.44,6.4
2013-06-29 22:30, 2.15,10.7
2013-06-29 23:00, 2.01,10.7
2013-06-29 23:30, 2.41,10.7
2013-06-30 00:00, 1.99,10.7
2013-06-30 00:30, 2.25,10.7
2013-06-30 01:00, 2.24,10.7
2013-06-30 01:30, 2.57,10.7
2013-06-30 02:00, 2.22,10.7
2013-06-30 02:30, 2.37,10.7
2013-06-30 03:00, 2.40,8.0
2013-06-30 03:30, 2.49,10.7
2013-06-30 04:00, 2.61,10.7
2013-06-30 04:30, 2.79,8.0
2013-06-30 05:00, 2.44,8.0
2013-06-30 05:30, 2.72,10.7
2013-06-30 06:00, 2.27,8.0
2013-06-30 06:30, 2.27,8.0
2013-06-30 07:00, 2.15,8.0
2013-06-30 07:30, 1.90,10.7
2013-06-30 08:00, 1.86,8.0
2013-06-30 08:30, 2.01,8.0
2013-06-30 09:00, 1.70,8.0
2013-06-30 09:30, 2.08,8.0
2013-06-30 10:00, 1.79,6.4
2013-06-30 10:30, 1.63,8.0
2013-06-30 11:00, 1.98,10.7
2013-06-30 11:30, 1.40,6.4
2013-06-30 12:00, 1.70,10.7
2013-06-30 12:30, 1.83,10.7
2013-06-30 13:00, 1.67,10.7
2013-06-30 13:30, 2.02,10.7
2013-06-30 14:00, 1.93,10.7
2013-06-30 14:30, 1.86,8.0
2013-06-30 15:00, 1.78,10.7
2013-06-30 15:30, 1.77,10.7
2013-06-30 16:00, 1.83,10.7
2013-06-30 16:30, 1.65,8.0
2013-06-30 17:00, 1.77,8.0
2013-06-30 17:30, 1.89,10.7
2013-06-30 18:00, 1.93,10.7
2013-06-30 18:30, 1.80,8.0
2013-06-30 19:00, 1.49,10.7
2013-06-30 19:30, 1.36,10.7
2013-06-30 20:00, 1.60,10.7
2013-06-30 20:30, 1.15,8.0
2013-06-30 21:00, 1.52,8.0
2013-06-30 21:30, 1.54,10.7
2013-06-30 22:00, 1.57,8.0
2013-06-30 22:30, 1.43,10.7
2013-06-30 23:00, 1.49,10.7
2013-06-30 23:30, 1.34,10.7
2013-07-01 00:00, 1.43,10.7
2013-07-01 00:30, 1.61,10.7
2013-07-01 01:00, 1.68,10.7
2013-07-01 01:30, 1.74,10.7
2013-07-01 02:00, 1.90,10.7
2013-07-01 02:30, 1.72,10.7
2013-07-01 03:00, 2.01,8.0
2013-07-01 03:30, 1.93,10.7
2013-07-01 04:00, 1.70,8.0
2013-07-01 04:30, 1.66,10.7
2013-07-01 05:00, 1.93,10.7
2013-07-01 05:30, 1.74,8.0
2013-07-01 06:00, 1.88,8.0
2013-07-01 06:30, 1.55,8.0
2013-07-01 07:00, 1.73,8.0
2013-07-01 07:30, 1.69,8.0
2013-07-01 08:00, 1.54,8.0
2013-07-01 08:30, 1.75,10.7
2013-07-01 09:00, 1.61,8.0
2013-07-01 09:30, 1.28,8.0
2013-07-01 10:00, 1.12,6.4
2013-07-01 10:30, 1.27,8.0
2013-07-01 11:00, 1.18,6.4
2013-07-01 11:30, 1.34,10.7
2013-07-01 12:00, 1.33,10.7
2013-07-01 12:30, 1.69,10.7
2013-07-01 13:00, 1.53,10.7
2013-07-01 13:30, 1.25,8.0
2013-07-01 14:00, 1.59,10.7
2013-07-01 14:30, 1.37,10.7
2013-07-01 15:00, 1.40,10.7
2013-07-01 15:30, 1.20,8.0
2013-07-01 16:00, 1.52,10.7
2013-07-01 16:30, 1.24,8.0
2013-07-01 17:00, 1.09,8.0
2013-07-01 17:30, 1.17,8.0
2013-07-01 18:00, 1.30,8.0
2013-07-01 18:30, 1.12,8.0
2013-07-01 19:00, 1.41,8.0
2013-07-01 19:30, 1.18,8.0
2013-07-01 20:00, 1.31,8.0
2013-07-01 20:30, 1.19,8.0
2013-07-01 21:00, 1.20,8.0
2013-07-01 21:30, 1.28,8.0
2013-07-01 22:00, 1.26,8.0
2013-07-01 22:30, 1.27,10.7
2013-07-01 23:00, 1.09,8.0
2013-07-01 23:30, 1.05,8.0
2013-07-02 00:00, 1.16,10.7
2013-07-02 00:30, 1.09,10.7
2013-07-02 01:00, 1.04,8.0
2013-07-02 01:30, 0.99,10.7
2013-07-02 02:00, 1.14,10.7
2013-07-02 02:30, 1.01,8.0
2013-07-02 03:00, 0.92,8.0
2013-07-02 03:30, 0.59,5.3
2013-07-02 04:00, 0.94,8.0
2013-07-02 04:30, 1.02,10.7
2013-07-02 05:00, 1.00,8.0
2013-07-02 05:30, 1.04,8.0
2013-07-02 06:00, 0.93,8.0
2013-07-02 06:30, 1.19,8.0
2013-07-02 07:00, 0.92,8.0
2013-07-02 07:30, 1.08,8.0
2013-07-02 08:00, 1.06,8.0
2013-07-02 08:30, 1.18,8.0
2013-07-02 09:00, 1.26,8.0
2013-07-02 09:30, 1.05,8.0
2013-07-02 10:00, 1.25,8.0
2013-07-02 10:30, 1.24,8.0
2013-07-02 11:00, 1.05,6.4
2013-07-02 11:30, 1.00,8.0
2013-07-02 12:00, 1.29,8.0
2013-07-02 12:30, 1.15,6.4
2013-07-02 13:00, 1.20,10.7
2013-07-02 13:30, 1.29,6.4
2013-07-02 14:00, 1.20,8.0
2013-07-02 14:30, 1.22,8.0
2013-07-02 15:00, 1.02,5.3
2013-07-02 15:30, 1.18,8.0
2013-07-02 16:00, 1.11,8.0
2013-07-02 16:30, 1.18,8.0
2013-07-02 17:00, 1.04,8.0
2013-07-02 17:30, 1.11,8.0
2013-07-02 18:00, 1.16,8.0
2013-07-02 18:30, 1.00,8.0
2013-07-02 19:00, 1.16,8.0
2013-07-02 19:30, 1.07,8.0
2013-07-02 20:00, 1.09,8.0
2013-07-02 20:30, 1.03,8.0
2013-07-02 21:00, 1.07,8.0
2013-07-02 21:30, 1.16,6.4
2013-07-02 22:00, 1.11,8.0
2013-07-02 22:30, 1.02,8.0
2013-07-02 23:00, 1.01,8.0
2013-07-02 23:30, 1.01,8.0
2013-07-03 00:00, 0.93,8.0
2013-07-03 00:30, 0.95,8.0
2013-07-03 01:00, 0.79,8.0
2013-07-03 01:30, 0.87,6.4
2013-07-03 02:00, 0.90,8.0
2013-07-03 02:30, 0.79,8.0
2013-07-03 03:00, 0.77,8.0
2013-07-03 03:30, 0.78,8.0
2013-07-03 04:00, 0.83,8.0
2013-07-03 04:30, 0.91,8.0
2013-07-03 05:00, 0.71,8.0
2013-07-03 05:30, 0.92,8.0
2013-07-03 06:00, 0.78,8.0
2013-07-03 06:30, 0.76,8.0
2013-07-03 07:00, 0.71,8.0
2013-07-03 07:30, 0.71,6.4
2013-07-03 08:00, 0.72,8.0
2013-07-03 08:30, 0.87,8.0
2013-07-03 09:00, 0.86,8.0
2013-07-03 09:30, 0.83,8.0
2013-07-03 10:00, 0.75,6.4
2013-07-03 10:30, 0.76,8.0
2013-07-03 11:00, 0.78,8.0
2013-07-03 11:30, 0.68,8.0
2013-07-03 12:00, 0.79,8.0
2013-07-03 12:30, 0.72,6.4
2013-07-03 13:00, 0.76,8.0
2013-07-03 13:30, 0.85,8.0
2013-07-03 14:00, 0.79,8.0
2013-07-03 14:30, 0.75,6.4
2013-07-03 15:00, 0.73,8.0
2013-07-03 15:30, 0.66,8.0
2013-07-03 16:00, 0.71,6.4
2013-07-03 16:30, 0.61,8.0
2013-07-03 17:00, 0.71,8.0
2013-07-03 17:30, 0.69,8.0
2013-07-03 18:00, 0.69,8.0
2013-07-03 18:30, 0.62,8.0
2013-07-03 19:00, 0.64,8.0
2013-07-03 19:30, 0.71,8.0
2013-07-03 20:00, 0.66,8.0
2013-07-03 20:30, 0.68,8.0
2013-07-03 21:00, 0.70,8.0
2013-07-03 21:30, 0.66,8.0
2013-07-03 22:00, 0.80,6.4
2013-07-03 22:30, 0.64,8.0
2013-07-03 23:00, 0.74,6.4
2013-07-03 23:30, 0.77,6.4
2013-07-04 00:00, 0.70,6.4
2013-07-04 00:30, 0.78,8.0
2013-07-04 01:00, 0.72,6.4
2013-07-04 01:30, 0.76,6.4
2013-07-04 02:00, 0.75,6.4
2013-07-04 02:30, 0.78,6.4
2013-07-04 03:00, 0.78,6.4
2013-07-04 03:30, 0.66,8.0
2013-07-04 04:00, 0.61,8.0
2013-07-04 04:30, 0.51,6.4
2013-07-04 05:00, 0.57,8.0
2013-07-04 05:30, 0.67,8.0
2013-07-04 06:00, 0.68,8.0
2013-07-04 06:30, 0.71,5.3
2013-07-04 07:00, 0.75,8.0
2013-07-04 07:30, 0.68,5.3
2013-07-04 08:00, 0.75,5.3
2013-07-04 08:30, 0.78,5.3
2013-07-04 09:00, 0.75,5.3
2013-07-04 09:30, 0.73,4.6
2013-07-04 10:00, 0.80,5.3
2013-07-04 10:30, 0.74,5.3
2013-07-04 11:00, 0.76,6.4
2013-07-04 11:30, 0.81,5.3
2013-07-04 12:00, 0.83,6.4
2013-07-04 12:30, 0.84,6.4
2013-07-04 13:00, 0.77,5.3
2013-07-04 13:30, 0.72,5.3
2013-07-04 14:00, 0.73,5.3
2013-07-04 14:30, 0.70,6.4
2013-07-04 15:00, 0.76,6.4
2013-07-04 15:30, 0.72,6.4
2013-07-04 16:00, 0.73,5.3
2013-07-04 16:30, 0.67,6.4
2013-07-04 17:00, 0.68,5.3
2013-07-04 17:30, 0.70,5.3
2013-07-04 18:00, 0.66,4.6
2013-07-04 18:30, 0.67,5.3
2013-07-04 19:00, 0.60,5.3
2013-07-04 19:30, 0.59,4.6
2013-07-04 20:00, 0.63,4.6
2013-07-04 20:30, 0.62,8.0
2013-07-04 21:00, 0.59,6.4
2013-07-04 21:30, 0.57,6.4
2013-07-04 22:00, 0.57,6.4
2013-07-04 22:30, 0.56,5.3
2013-07-04 23:00, 0.56,5.3
2013-07-04 23:30, 0.55,6.4
2013-07-05 00:00, 0.57,6.4
2013-07-05 00:30, 0.57,6.4
2013-07-05 01:00, 0.56,6.4
2013-07-05 01:30, 0.57,6.4
2013-07-05 02:00, 0.55,6.4
2013-07-05 02:30, 0.54,6.4
2013-07-05 03:00, 0.37,3.6
2013-07-05 03:30, 0.53,5.3
2013-07-05 04:00, 0.56,6.4
2013-07-05 04:30, 0.55,3.6
2013-07-05 05:00, 0.67,3.6
2013-07-05 05:30, 0.56,3.6
2013-07-05 06:00, 0.55,3.6
2013-07-05 06:30, 0.57,3.6
2013-07-05 07:00, 0.54,4.6
2013-07-05 07:30, 0.62,4.0
2013-07-05 08:00, 0.68,5.3
2013-07-05 08:30, 0.70,5.3
2013-07-05 09:00, 0.66,5.3
2013-07-05 09:30, 0.64,4.6
2013-07-05 10:00, 0.71,4.6
2013-07-05 10:30, 0.63,4.6
2013-07-05 11:00, 0.69,5.3
2013-07-05 11:30, 0.63,4.6
2013-07-05 12:00, 0.70,5.3
2013-07-05 12:30, 0.75,5.3
2013-07-05 13:00, 0.76,5.3
2013-07-05 13:30, 0.74,6.4
2013-07-05 14:00, 0.72,5.3
2013-07-05 14:30, 0.74,5.3
2013-07-05 15:00, 0.69,6.4
2013-07-05 15:30, 0.73,5.3
2013-07-05 16:00, 0.71,5.3
2013-07-05 16:30, 0.73,5.3
2013-07-05 17:00, 0.71,5.3
2013-07-05 17:30, 0.64,5.3
2013-07-05 18:00, 0.60,5.3
2013-07-05 18:30, 0.53,5.3
2013-07-05 19:00, 0.65,5.3
2013-07-05 19:30, 0.59,4.6
2013-07-05 20:00, 0.52,5.3
2013-07-05 20:30, 0.52,5.3
2013-07-05 21:00, 0.56,8.0
2013-07-05 21:30, 0.53,4.6
2013-07-05 22:00, 0.62,6.4
2013-07-05 22:30, 0.61,5.3
2013-07-05 23:00, 0.67,5.3
2013-07-05 23:30, 0.64,3.6
2013-07-06 00:00, 0.63,6.4
2013-07-06 00:30, 0.61,3.6
2013-07-06 01:00, 0.72,5.3
2013-07-06 01:30, 0.60,5.3
2013-07-06 02:00, 0.56,3.2
2013-07-06 02:30, 0.61,5.3
2013-07-06 03:00, 0.57,3.6
2013-07-06 03:30, 0.57,5.3
2013-07-06 04:00, 0.60,5.3
2013-07-06 04:30, 0.52,4.6
2013-07-06 05:00, 0.55,4.6
2013-07-06 05:30, 0.56,4.0
2013-07-06 06:00, 0.55,5.3
2013-07-06 06:30, 0.49,4.6
2013-07-06 07:00, 0.57,4.6
2013-07-06 07:30, 0.55,4.0
2013-07-06 08:00, 0.52,4.6
2013-07-06 08:30, 0.52,4.6
2013-07-06 09:00, 0.46,8.0
2013-07-06 09:30, 0.50,4.0
2013-07-06 10:00, 0.54,4.6
2013-07-06 10:30, 0.52,4.0
2013-07-06 11:00, 0.64,4.6
2013-07-06 11:30, 0.65,4.6
2013-07-06 12:00, 0.67,5.3
2013-07-06 12:30, 0.65,5.3
2013-07-06 13:00, 0.65,4.6
2013-07-06 13:30, 0.65,5.3
2013-07-06 14:00, 0.63,5.3
2013-07-06 14:30, 0.55,5.3
2013-07-06 15:00, 0.54,5.3
2013-07-06 15:30, 0.68,5.3
2013-07-06 16:00, 0.57,5.3
2013-07-06 16:30, 0.56,5.3
2013-07-06 17:00, 0.56,5.3
2013-07-06 17:30, 0.59,5.3
2013-07-06 18:00, 0.55,5.3
2013-07-06 18:30, 0.53,5.3
2013-07-06 19:00, 0.50,5.3
2013-07-06 19:30, 0.54,5.3
2013-07-06 20:00, 0.50,4.6
2013-07-06 20:30, 0.44,5.3
2013-07-06 21:00, 0.45,5.3
2013-07-06 21:30, 0.74,16.0
2013-07-06 22:00, 0.49,5.3
2013-07-06 22:30, 0.47,5.3
2013-07-06 23:00, 0.48,4.0
2013-07-06 23:30, 0.47,4.6
2013-07-07 00:00, 0.48,4.0
2013-07-07 00:30, 0.56,4.0
2013-07-07 01:00, 0.50,4.6
2013-07-07 01:30, 0.48,3.6
2013-07-07 02:00, 0.40,4.6
2013-07-07 02:30, 0.44,4.6
2013-07-07 03:00, 0.42,5.3
2013-07-07 03:30, 0.42,6.4
2013-07-07 04:00, 0.40,4.6
2013-07-07 04:30, 0.40,4.0
2013-07-07 05:00, 0.32,4.6
2013-07-07 05:30, 0.40,5.3
2013-07-07 06:00, 0.37,5.3
2013-07-07 06:30, 0.46,5.3
2013-07-07 07:00, 0.38,4.0
2013-07-07 07:30, 0.30,3.2
2013-07-07 08:00, 0.36,5.3
2013-07-07 08:30, 0.42,5.3
2013-07-07 09:00, 0.44,5.3
2013-07-07 09:30, 0.35,5.3
2013-07-07 10:00, 0.41,8.0
2013-07-07 10:30, 0.42,5.3
2013-07-07 11:00, 0.40,8.0
2013-07-07 11:30, 0.39,4.6
2013-07-07 12:00, 0.40,8.0
2013-07-07 12:30, 0.37,8.0
2013-07-07 13:00, 0.40,8.0
2013-07-07 13:30, 0.42,8.0
2013-07-07 14:00, 0.38,6.4
2013-07-07 14:30, 0.42,8.0
2013-07-07 15:00, 0.44,2.7
2013-07-07 15:30, 0.43,5.3
2013-07-07 16:00, 0.46,6.4
2013-07-07 16:30, 0.35,5.3
2013-07-07 17:00, 0.41,6.4
2013-07-07 17:30, 0.36,5.3
2013-07-07 18:00, 0.42,6.4
2013-07-07 18:30, 0.42,5.3
2013-07-07 19:00, 0.24,2.7
2013-07-07 19:30, 0.38,5.3
2013-07-07 20:00, 0.33,4.6
2013-07-07 20:30, 0.42,8.0
2013-07-07 21:00, 0.34,5.3
2013-07-07 21:30, 0.33,2.7
2013-07-07 22:00, 0.39,8.0
2013-07-07 22:30, 0.38,8.0
2013-07-07 23:00, 0.37,8.0
2013-07-07 23:30, 0.37,8.0
2013-07-08 00:00, 0.41,8.0
2013-07-08 00:30, 0.42,8.0
2013-07-08 01:00, 0.36,6.4
2013-07-08 01:30, 0.13,2.7
2013-07-08 02:00, 0.36,8.0
2013-07-08 02:30, 0.39,8.0
2013-07-08 03:00, 0.43,8.0
2013-07-08 03:30, 0.36,8.0
2013-07-08 04:00, 0.21,2.9
2013-07-08 04:30, 0.34,5.3
2013-07-08 05:00, 0.31,6.4
2013-07-08 05:30, 0.29,5.3
2013-07-08 06:00, 0.30,6.4
2013-07-08 06:30, 0.29,6.4
2013-07-08 07:00, 0.36,5.3
2013-07-08 07:30, 0.31,5.3
2013-07-08 08:00, 0.33,5.3
2013-07-08 08:30, 0.29,5.3
2013-07-08 09:00, 0.38,5.3
2013-07-08 09:30, 0.36,6.4
2013-07-08 10:00, 0.37,5.3
2013-07-08 10:30, 0.36,8.0
2013-07-08 11:00, 0.43,8.0
2013-07-08 11:30, 0.37,8.0
2013-07-08 12:00, 0.34,8.0
2013-07-08 12:30, 0.39,6.4
2013-07-08 13:00, 0.57,6.4
2013-07-08 13:30, 0.48,2.9
2013-07-08 14:00, 0.40,2.9
2013-07-08 14:30, 0.42,2.9
2013-07-08 15:00, 0.47,6.4
2013-07-08 15:30, 0.48,6.4
2013-07-08 16:00, 0.49,8.0
2013-07-08 16:30, 0.46,6.4
2013-07-08 17:00, 0.50,6.4
2013-07-08 17:30, 0.48,5.3
2013-07-08 18:00, 0.43,6.4
2013-07-08 18:30, 0.41,6.4
2013-07-08 19:00, 0.38,6.4
2013-07-08 19:30, 0.39,5.3
2013-07-08 20:00, 0.36,6.4
2013-07-08 20:30, 0.38,8.0
2013-07-08 21:00, 0.40,6.4
2013-07-08 21:30, 0.23,3.2
2013-07-08 22:00, 0.28,4.6
2013-07-08 22:30, 0.33,6.4
2013-07-08 23:00, 0.38,4.6
2013-07-08 23:30, 0.41,6.4
2013-07-09 00:00, 0.33,2.5
2013-07-09 00:30, 0.39,6.4
2013-07-09 01:00, 0.39,4.6
2013-07-09 01:30, 0.35,4.6
2013-07-09 02:00, 0.33,5.3
2013-07-09 02:30, 0.28,3.6
2013-07-09 03:00, 0.28,5.3
2013-07-09 03:30, 0.34,6.4
2013-07-09 04:00, 0.35,6.4
2013-07-09 04:30, 0.35,6.4
2013-07-09 05:00, 0.35,5.3
2013-07-09 05:30, 0.35,6.4
2013-07-09 06:00, 0.45,10.7
2013-07-09 06:30, 0.35,5.3
2013-07-09 07:00, 0.49,10.7
2013-07-09 07:30, 0.36,6.4
2013-07-09 08:00, 0.36,6.4
2013-07-09 08:30, 0.31,5.3
2013-07-09 09:00, 0.38,6.4
2013-07-09 09:30, 0.36,5.3
2013-07-09 10:00, 0.37,5.3
2013-07-09 10:30, 0.34,6.4
2013-07-09 11:00, 0.36,6.4
2013-07-09 11:30, 0.37,6.4
2013-07-09 12:00, 0.37,5.3
2013-07-09 12:30, 0.36,8.0
2013-07-09 13:00, 0.38,5.3
2013-07-09 13:30, 0.35,6.4
2013-07-09 14:00, 0.32,6.4
2013-07-09 14:30, 0.35,6.4
2013-07-09 15:00, 0.39,6.4
2013-07-09 15:30, 0.44,5.3
2013-07-09 16:00, 0.49,6.4
2013-07-09 16:30, 0.49,6.4
2013-07-09 17:00, 0.49,6.4
2013-07-09 17:30, 0.55,5.3
2013-07-09 18:00, 0.54,6.4
2013-07-09 18:30, 0.48,2.7
2013-07-09 19:00, 0.49,2.9
2013-07-09 19:30, 0.51,6.4
2013-07-09 20:00, 0.40,2.9
2013-07-09 20:30, 0.43,5.3
2013-07-09 21:00, 0.48,5.3
2013-07-09 21:30, 0.33,2.9
2013-07-09 22:00, 0.39,6.4
2013-07-09 22:30, 0.27,2.7
2013-07-09 23:00, 0.43,6.4
2013-07-09 23:30, 0.44,6.4
2013-07-10 00:00, 0.39,5.3
2013-07-10 00:30, 0.31,2.0
2013-07-10 01:00, 0.42,5.3
2013-07-10 01:30, 0.43,6.4
2013-07-10 02:00, 0.42,6.4
2013-07-10 02:30, 0.47,6.4
2013-07-10 03:00, 0.44,6.4
2013-07-10 03:30, 0.49,6.4
2013-07-10 04:00, 0.48,6.4
2013-07-10 04:30, 0.46,6.4
2013-07-10 05:00, 0.46,6.4
2013-07-10 05:30, 0.47,6.4
2013-07-10 06:00, 0.54,6.4
2013-07-10 06:30, 0.50,6.4
2013-07-10 07:00, 0.54,6.4
2013-07-10 07:30, 0.46,6.4
2013-07-10 08:00, 0.48,4.6
2013-07-10 08:30, 0.40,4.6
2013-07-10 09:00, 0.41,6.4
2013-07-10 09:30, 0.45,5.3
2013-07-10 10:00, 0.44,6.4
2013-07-10 10:30, 0.46,4.6
2013-07-10 11:00, 0.42,10.7
2013-07-10 11:30, 0.40,4.6
2013-07-10 12:00, 0.45,4.6
2013-07-10 12:30, 0.45,4.6
2013-07-10 13:00, 0.47,4.6
2013-07-10 13:30, 0.49,6.4
2013-07-10 14:00, 0.51,4.6
2013-07-10 14:30, 0.48,4.6
2013-07-10 15:00, 0.45,4.6
2013-07-10 15:30, 0.48,4.6
2013-07-10 16:00, 0.41,4.6
2013-07-10 16:30, 0.51,6.4
2013-07-10 17:00, 0.47,6.4
2013-07-10 17:30, 0.45,5.3
2013-07-10 18:00, 0.37,4.6
2013-07-10 18:30, 0.43,4.6
2013-07-10 19:00, 0.43,6.4
2013-07-10 19:30, 0.43,6.4
2013-07-10 20:00, 0.45,6.4
2013-07-10 20:30, 0.44,5.3
2013-07-10 21:00, 0.44,5.3
2013-07-10 21:30, 0.41,5.3
2013-07-10 22:00, 0.42,5.3
2013-07-10 22:30, 0.45,6.4
2013-07-10 23:00, 0.49,5.3
2013-07-10 23:30, 0.47,6.4
2013-07-11 00:00, 0.47,6.4
2013-07-11 00:30, 0.50,6.4
2013-07-11 01:00, 0.50,3.6
2013-07-11 01:30, 0.54,3.6
2013-07-11 02:00, 0.53,4.0
2013-07-11 02:30, 0.56,4.0
2013-07-11 03:00, 0.62,4.0
2013-07-11 03:30, 0.63,3.6
2013-07-11 04:00, 0.77,3.6
2013-07-11 04:30, 0.83,4.0
2013-07-11 05:00, 0.78,4.6
2013-07-11 05:30, 0.84,4.0
2013-07-11 06:00, 0.80,4.6
2013-07-11 06:30, 0.86,4.6
2013-07-11 07:00, 0.78,5.3
2013-07-11 07:30, 0.81,4.6
2013-07-11 08:00, 0.78,5.3
2013-07-11 08:30, 0.81,5.3
2013-07-11 09:00, 0.94,5.3
2013-07-11 09:30, 0.78,5.3
2013-07-11 10:00, 0.79,5.3
2013-07-11 10:30, 0.88,5.3
2013-07-11 11:00, 0.82,5.3
2013-07-11 11:30, 0.77,4.6
2013-07-11 12:00, 0.82,4.6
2013-07-11 12:30, 0.78,4.6
2013-07-11 13:00, 0.81,5.3
2013-07-11 13:30, 0.82,5.3
2013-07-11 14:00, 0.83,5.3
2013-07-11 14:30, 0.91,6.4
2013-07-11 15:00, 0.76,6.4
2013-07-11 15:30, 0.77,5.3
2013-07-11 16:00, 0.81,5.3
2013-07-11 17:00, 0.96,6.4
2013-07-11 17:30, 0.94,6.4
2013-07-11 18:00, 0.85,6.4
2013-07-11 18:30, 0.97,6.4
2013-07-11 19:00, 0.85,6.4
2013-07-11 19:30, 0.89,6.4
2013-07-11 20:00,,6.4
2013-07-11 20:30, 0.90,6.4
2013-07-11 21:00, 0.75,6.4
2013-07-11 21:30, 0.79,6.4
2013-07-11 22:00, 0.80,6.4
2013-07-11 22:30, 0.78,6.4
2013-07-11 23:00, 0.69,5.3
2013-07-11 23:30, 0.75,6.4
2013-07-12 00:00, 0.64,6.4
2013-07-12 00:30, 0.68,6.4
2013-07-12 01:00, 0.67,6.4
2013-07-12 01:30, 0.60,6.4
2013-07-12 02:00, 0.64,6.4
2013-07-12 02:30, 0.59,5.3
2013-07-12 03:00, 0.66,6.4
2013-07-12 03:30, 0.57,6.4
2013-07-12 04:00, 0.56,6.4
2013-07-12 04:30, 0.72,6.4
2013-07-12 05:00, 0.66,6.4
2013-07-12 05:30, 0.70,6.4
2013-07-12 06:00, 0.78,6.4
2013-07-12 06:30, 0.73,6.4
2013-07-12 07:00, 0.77,6.4
2013-07-12 07:30, 0.82,6.4
2013-07-12 08:00, 0.70,8.0
2013-07-12 08:30, 0.69,6.4
2013-07-12 09:00, 0.73,8.0
2013-07-12 09:30, 0.65,8.0
2013-07-12 10:00, 0.61,8.0
2013-07-12 10:30, 0.74,8.0
2013-07-12 11:00, 0.51,2.7